Flag for U.S.A. Weather past 2 weeks in Norwalk, California, U.S.A.

Now
60 °F

Fog.


Feels Like: 60 °F
Forecast: 55 / 78 °F
Wind: No wind

Location: Fullerton Municipal Airport


UV Index: 5 (Moderate)

Visibility: 4 mi


Pressure: 30.02 "Hg

Humidity: 90%

Dew point: 57 °F

Location of NorwalkLocation

Historic Weather in Norwalk

°F

Norwalk temperature yesterday

Maximum temperature yesterday: 78 °F (at 1:53 PM)
Minimum temperature yesterday: 58 °F (at 5:53 AM)
Average temperature yesterday: 67 °F

Past Weeks' High & Low Weather Summary

 TemperatureHumidityPressure
High94 °F (Apr 8, 2:53 PM)90% (Apr 21, 1:53 AM)30.09 "Hg (Apr 21, 1:53 AM)
Low51 °F (Apr 6, 4:53 AM)10% (Apr 8, 3:53 PM)29.78 "Hg (Apr 16, 4:53 PM)
Average66 °F57%29.95 "Hg
* Reported Apr 6 2:53 AM — Apr 21 2:53 AM, Norwalk, Weather by CustomWeather, © 2014

Note: Actual official high and low records may vary slightly from our data, if they occured in-between our weather recording intervals... More about our weather records

Advertising

Historic Weather Conditions — Data for Previous 24 hours

 ConditionsComfort  
Time TempWeatherWind HumidityBarometerVisibility
2:53 AM
Apr 21
60 °FFog.No wind90%30.02 "Hg4 mi
1:53 AM60 °FFog.3 mph90%30.04 "Hg5 mi
12:53 AM62 °FClear.5 mph83%30.04 "Hg8 mi
11:53 PM
Apr 20
62 °FClear.3 mph83%30.04 "Hg8 mi
10:53 PM64 °FClear.5 mph78%30.03 "Hg10 mi
9:53 PM65 °FClear.5 mph76%30.03 "Hg10 mi
8:53 PM67 °FClear.6 mph68%30.02 "Hg10 mi
7:53 PM69 °FSunny.5 mph59%29.99 "Hg10 mi
6:53 PM72 °FSunny.6 mph53%29.98 "Hg10 mi
5:53 PM74 °FSunny.7 mph50%29.98 "Hg10 mi
4:53 PM75 °FSunny.8 mph50%29.99 "Hg10 mi
3:53 PM75 °FSunny.10 mph52%29.99 "Hg10 mi
2:53 PM76 °FSunny.8 mph52%30.00 "Hg10 mi
1:53 PM78 °FSunny.7 mph46%30.01 "Hg10 mi
12:53 PM76 °FSunny.5 mph50%30.02 "Hg10 mi
11:53 AM75 °FSunny.No wind50%30.04 "Hg10 mi
10:53 AM70 °FSunny.3 mph61%30.05 "Hg9 mi
9:53 AM67 °FSunny.3 mph66%30.05 "Hg9 mi
8:53 AM64 °FSunny.No wind73%30.05 "Hg8 mi
7:53 AM61 °FSunny.No wind81%30.04 "Hg8 mi
6:53 AM58 °FClear.No wind87%30.03 "Hg7 mi
5:53 AM58 °FClear.3 mph84%30.02 "Hg9 mi
4:53 AM59 °FPassing clouds.No wind84%30.01 "Hg9 mi
3:53 AM59 °FClear.No wind87%30.03 "Hg9 mi
Weather by CustomWeather, © 2014

See weather overview